TimeMDT,TemperatureF,Dew PointF,Humidity,Sea Level PressureIn,VisibilityMPH,Wind Direction,Wind SpeedMPH,Gust SpeedMPH,PrecipitationIn,Events,Conditions,WindDirDegrees,DateUTC
12:53 AM,23.0,16.0,74,30.43,10.0,North,6.9,-,N/A,,Overcast,360,2013-04-23 06:53:00
1:53 AM,23.0,16.0,74,30.41,10.0,NNW,4.6,-,N/A,,Overcast,330,2013-04-23 07:53:00
2:53 AM,21.9,18.0,85,30.40,10.0,Calm,Calm,-,N/A,,Overcast,0,2013-04-23 08:53:00
3:53 AM,21.9,17.1,82,30.39,10.0,WNW,4.6,-,N/A,,Overcast,290,2013-04-23 09:53:00
4:53 AM,21.9,18.0,85,30.39,10.0,Calm,Calm,-,N/A,,Overcast,0,2013-04-23 10:53:00
5:53 AM,21.9,18.0,85,30.38,10.0,NW,3.5,-,N/A,,Overcast,310,2013-04-23 11:53:00
6:53 AM,23.0,18.0,81,30.39,10.0,Calm,Calm,-,N/A,,Mostly Cloudy,0,2013-04-23 12:53:00
7:53 AM,25.0,18.0,75,30.38,10.0,WNW,6.9,-,N/A,,Partly Cloudy,300,2013-04-23 13:53:00
8:53 AM,27.0,17.1,66,30.38,10.0,WNW,9.2,-,N/A,,Partly Cloudy,290,2013-04-23 14:53:00
9:53 AM,30.9,18.0,59,30.35,10.0,WNW,13.8,18.4,N/A,,Scattered Clouds,290,2013-04-23 15:53:00
10:22 AM,30.2,17.6,60,30.25,10.0,WNW,10.4,17.3,N/A,,Mostly Cloudy,300,2013-04-23 16:22:00
10:35 AM,33.8,17.6,52,30.25,10.0,NW,10.4,-,N/A,,Scattered Clouds,310,2013-04-23 16:35:00
10:53 AM,32.0,12.9,45,30.35,10.0,Variable,5.8,17.3,N/A,,Mostly Cloudy,0,2013-04-23 16:53:00
11:53 AM,35.1,15.1,44,30.32,10.0,Variable,5.8,-,N/A,,Mostly Cloudy,0,2013-04-23 17:53:00
12:53 PM,36.0,14.0,41,30.28,10.0,WNW,10.4,-,N/A,,Scattered Clouds,290,2013-04-23 18:53:00
1:53 PM,37.9,12.9,36,30.25,10.0,NW,9.2,17.3,N/A,,Scattered Clouds,310,2013-04-23 19:53:00
2:53 PM,39.9,12.9,33,30.22,10.0,WNW,8.1,-,N/A,,Mostly Cloudy,300,2013-04-23 20:53:00
3:53 PM,42.1,12.9,31,30.20,10.0,NW,11.5,21.9,N/A,,Partly Cloudy,310,2013-04-23 21:53:00
4:53 PM,43.0,14.0,31,30.17,10.0,NW,9.2,-,N/A,,Scattered Clouds,320,2013-04-23 22:53:00
5:53 PM,42.1,12.9,31,30.17,10.0,West,6.9,-,N/A,,Mostly Cloudy,280,2013-04-23 23:53:00
6:53 PM,41.0,14.0,33,30.17,10.0,NW,6.9,-,N/A,,Scattered Clouds,320,2013-04-24 00:53:00
7:53 PM,36.0,19.9,52,30.19,10.0,NE,8.1,-,N/A,,Clear,40,2013-04-24 01:53:00
8:53 PM,30.9,19.9,64,30.22,10.0,East,4.6,-,N/A,,Clear,90,2013-04-24 02:53:00
9:53 PM,28.0,19.0,69,30.23,10.0,SE,4.6,-,N/A,,Clear,130,2013-04-24 03:53:00
10:53 PM,28.0,19.9,72,30.23,10.0,ESE,4.6,-,N/A,,Clear,120,2013-04-24 04:53:00
11:53 PM,25.0,18.0,75,30.23,10.0,East,3.5,-,N/A,,Clear,80,2013-04-24 05:53:00